Volver al catálogo

COSMOS 2433

GLONASS

ActivoNavegaciónMEO
NORAD 32275·PAYLOAD·🇷🇺 Russia

Lanzado Oct 26, 2007 desde Baikonur Cosmodrome

Loading…

Próximos Pases (próximas 24 horas)

TLE

ActualizadoSource: Space-Track

Época: Sep 14, 2026, 13:03 UTC

1 32275U 07052A   26257.54387713 -.00000055  00000-0  00000-0 0  9994
2 32275  65.5212 312.9232 0005480 225.3959 134.6326  2.13104077146962

Sigue COSMOS 2433 en tiempo real con AllMySat

Download on the App Store